WB9PAR Weather Reports


time (UTC)temp
C
wind
direction
speed
KPH
gust
KPH
rain 1hr
cm
rain 24hr
cm
rain mn
cm
humidity
%
barometer
mb
20260906052148 22 320 0.0 0.0 0.00 0.00 0.00 92 1045.9
20260906051644 22 305 0.0 0.0 0.00 0.00 0.00 92 1045.8
20260906051143 22 317 0.0 0.0 0.00 0.00 0.00 92 1045.7
20260906050639 22 324 0.0 0.0 0.00 0.00 0.00 92 1045.8
20260906050134 22 318 0.0 0.0 0.00 0.00 0.00 92 1045.6
20260906045632 22 329 0.0 0.0 0.00 0.00 0.00 91 1045.4
20260906045127 22 321 0.0 0.0 0.00 0.00 0.00 91 1045.4
20260906044623 23 306 1.6 1.6 0.00 0.00 0.00 91 1045.6
20260906044119 23 287 1.6 3.2 0.00 0.00 0.00 91 1045.6
20260906043615 23 339 1.6 3.2 0.00 0.00 0.00 91 1045.6
20260906043110 23 323 1.6 1.6 0.00 0.00 0.00 90 1045.7
20260906042609 23 288 1.6 3.2 0.00 0.00 0.00 90 1045.5
20260906042104 23 38 6.4 11.3 0.00 0.00 0.00 90 1045.6
20260906041600 23 26 6.4 6.4 0.00 0.00 0.00 90 1045.4
20260906041055 23 338 3.2 3.2 0.00 0.00 0.00 91 1045.5
20260906040550 23 308 0.0 0.0 0.00 0.00 0.00 91 1045.6
20260906040045 23 317 1.6 1.6 0.00 0.00 0.00 91 1045.3
20260906035541 23 79 0.0 1.6 0.00 0.00 0.00 91 1045.5
20260906035037 23 350 1.6 1.6 0.00 0.00 0.00 91 1045.2
20260906034536 23 14 4.8 4.8 0.00 0.00 0.00 91 1045.2
20260906034031 23 12 1.6 4.8 0.00 0.00 0.00 91 1045.2
20260906033526 23 336 1.6 1.6 0.00 0.00 0.00 91 1045.4
20260906033022 23 335 3.2 3.2 0.00 0.00 0.00 91 1045.4
20260906032519 23 306 4.8 4.8 0.00 0.00 0.00 91 1045.4
20260906032018 23 12 4.8 4.8 0.00 0.00 0.00 90 1045.2
20260906031514 23 310 4.8 4.8 0.00 0.00 0.00 90 1045.1
20260906031010 23 322 0.0 0.0 0.00 0.00 0.00 90 1045.4
20260906030509 23 346 3.2 4.8 0.00 0.00 0.00 90 1045.3
20260906030009 23 39 6.4 6.4 0.00 0.00 0.00 89 1045.3
20260906025508 24 117 4.8 4.8 0.00 0.00 0.00 89 1045.4
20260906025007 24 328 1.6 1.6 0.00 0.00 0.00 89 1045.5
20260906024502 24 45 4.8 6.4 0.00 0.00 0.00 88 1045.2
20260906024002 24 234 1.6 1.6 0.00 0.00 0.00 88 1045.2
20260906023458 24 327 0.0 0.0 0.00 0.00 0.00 87 1045.1
20260906022953 24 136 4.8 9.7 0.00 0.00 0.00 87 1045.2
20260906022448 25 176 1.6 1.6 0.00 0.00 0.00 86 1045.0
20260906021944 25 14 3.2 3.2 0.00 0.00 0.00 85 1044.9
20260906021444 25 315 3.2 3.2 0.00 0.00 0.00 85 1044.9
20260906020938 25 338 1.6 3.2 0.00 0.00 0.00 86 1045.0
20260906020433 25 325 1.6 1.6 0.00 0.00 0.00 87 1044.9
20260906015927 24 23 3.2 4.8 0.00 0.00 0.00 88 1044.9
20260906015427 24 335 0.0 0.0 0.00 0.00 0.00 88 1044.8
20260906014926 25 349 3.2 4.8 0.00 0.00 0.00 88 1044.8
20260906014426 25 313 1.6 1.6 0.00 0.00 0.00 87 1044.8
20260906013922 25 331 0.0 1.6 0.00 0.00 0.00 86 1044.4
20260906013418 24 327 1.6 3.2 0.00 0.00 0.00 86 1044.1
20260906012913 24 319 4.8 4.8 0.00 0.00 0.00 86 1044.2
20260906012408 24 318 4.8 4.8 0.00 0.00 0.00 85 1044.1
20260906011907 24 320 0.0 0.0 0.00 0.00 0.00 84 1044.1
20260906011403 23 327 0.0 0.0 0.00 0.00 0.00 84 1044.0
20260906010858 23 310 0.0 0.0 0.00 0.00 0.00 85 1043.9
20260906010354 23 311 0.0 0.0 0.00 0.00 0.00 85 1044.0
20260906005850 24 311 0.0 0.0 0.00 0.00 0.00 84 1044.1
20260906005349 24 311 0.0 0.0 0.00 0.00 0.00 84 1044.1
20260906004847 24 311 0.0 0.0 0.00 0.00 0.00 83 1043.9
20260906004347 24 311 0.0 0.0 0.00 0.00 0.00 83 1044.0
20260906003842 24 308 0.0 0.0 0.00 0.00 0.00 82 1043.8
20260906003338 24 320 0.0 0.0 0.00 0.00 0.00 81 1043.6
20260906002833 25 322 0.0 0.0 0.00 0.00 0.00 80 1043.7
20260906002332 25 322 0.0 0.0 0.00 0.00 0.00 79 1043.4
20260906001828 25 322 0.0 0.0 0.00 0.00 0.00 79 1043.4
20260906001324 25 308 0.0 0.0 0.00 0.00 0.00 79 1043.5
20260906000819 25 308 0.0 0.0 0.00 0.00 0.00 78 1043.3
20260906000313 25 308 0.0 0.0 0.00 0.00 0.00 78 1043.4
20260905235808 25 308 0.0 0.0 0.00 0.00 0.00 77 1043.4
20260905235308 25 304 3.2 3.2 0.00 0.00 0.00 76 1043.6
20260905234804 26 304 0.0 0.0 0.00 0.00 0.00 76 1043.3
20260905234259 26 310 0.0 0.0 0.00 0.00 0.00 75 1043.3
20260905233754 26 302 1.6 1.6 0.00 0.00 0.00 74 1043.3
20260905233254 26 300 0.0 0.0 0.00 0.00 0.00 74 1043.5
20260905232753 26 299 1.6 1.6 0.00 0.00 0.00 74 1043.7
20260905232249 26 316 1.6 3.2 0.00 0.00 0.00 74 1043.5
20260905231745 26 334 1.6 3.2 0.00 0.00 0.00 73 1043.6
20260905231240 26 299 0.0 0.0 0.00 0.00 0.00 73 1043.7
20260905230736 26 320 1.6 1.6 0.00 0.00 0.00 72 1043.8
20260905230234 27 271 0.0 0.0 0.00 0.00 0.00 73 1043.7
20260905225734 27 324 3.2 4.8 0.00 0.00 0.00 73 1044.0
20260905225229 27 12 6.4 6.4 0.00 0.00 0.00 73 1043.8
20260905224728 27 342 8.0 9.7 0.00 0.00 0.00 73 1043.5
20260905224223 27 320 1.6 3.2 0.00 0.00 0.00 73 1043.6
20260905223720 27 55 6.4 9.7 0.00 0.00 0.00 71 1043.5
20260905223216 28 307 0.0 1.6 0.00 0.00 0.00 71 1043.3
20260905222712 29 233 4.8 9.7 0.00 0.00 0.00 68 1043.4
20260905222211 31 322 3.2 3.2 0.00 0.00 0.00 63 1043.2
20260905221707 32 328 3.2 6.4 0.00 0.00 0.00 60 1042.7
20260905221204 33 293 3.2 3.2 0.00 0.00 0.00 59 1042.4
20260905220659 32 306 3.2 3.2 0.00 0.00 0.00 61 1042.8
20260905220155 33 287 0.0 0.0 0.00 0.00 0.00 61 1042.6
20260905215654 33 288 1.6 1.6 0.00 0.00 0.00 60 1042.9
20260905215150 33 291 1.6 1.6 0.00 0.00 0.00 60 1042.7
20260905214646 32 291 0.0 1.6 0.00 0.00 0.00 62 1042.8
20260905214141 32 302 3.2 4.8 0.00 0.00 0.00 62 1042.4
20260905213636 33 314 1.6 1.6 0.00 0.00 0.00 61 1042.3
20260905213131 32 294 0.0 1.6 0.00 0.00 0.00 63 1042.7
20260905212627 32 293 3.2 3.2 0.00 0.00 0.00 64 1042.9
20260905212126 32 322 1.6 3.2 0.00 0.00 0.00 62 1042.7
20260905211621 32 302 1.6 1.6 0.00 0.00 0.00 62 1042.5
20260905211117 32 293 3.2 3.2 0.00 0.00 0.00 61 1042.6
20260905210613 32 292 1.6 1.6 0.00 0.00 0.00 60 1042.7
20260905210107 32 287 1.6 3.2 0.00 0.00 0.00 59 1042.8
20260905205607 32 317 1.6 3.2 0.00 0.00 0.00 59 1042.9
20260905205106 32 296 1.6 1.6 0.00 0.00 0.00 61 1042.9
20260905204600 32 301 3.2 4.8 0.00 0.00 0.00 61 1043.3
20260905204056 32 295 0.0 0.0 0.00 0.00 0.00 60 1042.9
20260905203556 32 285 8.0 11.3 0.00 0.00 0.00 58 1043.4
20260905203051 32 277 0.0 0.0 0.00 0.00 0.00 59 1043.2
20260905202546 33 295 0.0 0.0 0.00 0.00 0.00 57 1043.3
20260905202042 33 289 0.0 0.0 0.00 0.00 0.00 57 1043.3
20260905201538 33 301 3.2 3.2 0.00 0.00 0.00 56 1043.4
20260905201037 33 310 8.0 9.7 0.00 0.00 0.00 54 1043.4
20260905200532 33 301 6.4 6.4 0.00 0.00 0.00 53 1043.3
20260905200032 34 297 8.0 9.7 0.00 0.00 0.00 53 1043.5
20260905195527 34 274 3.2 3.2 0.00 0.00 0.00 55 1043.5
20260905195022 34 297 1.6 1.6 0.00 0.00 0.00 51 1043.5
20260905194522 34 304 1.6 3.2 0.00 0.00 0.00 53 1043.5
20260905194022 34 294 1.6 1.6 0.00 0.00 0.00 52 1043.3
20260905193522 34 330 4.8 4.8 0.00 0.00 0.00 53 1043.7
20260905193017 33 299 0.0 1.6 0.00 0.00 0.00 51 1043.7
20260905192512 35 294 3.2 3.2 0.00 0.00 0.00 50 1043.7
20260905192009 35 292 0.0 0.0 0.00 0.00 0.00 51 1043.7
20260905191507 34 296 3.2 3.2 0.00 0.00 0.00 51 1043.7
20260905191006 33 289 1.6 1.6 0.00 0.00 0.00 52 1043.9
20260905190504 33 274 3.2 4.8 0.00 0.00 0.00 53 1043.9
20260905190003 33 293 3.2 3.2 0.00 0.00 0.00 53 1044.1
20260905185458 33 291 3.2 4.8 0.00 0.00 0.00 54 1043.9
20260905184957 33 285 6.4 9.7 0.00 0.00 0.00 52 1044.2
20260905184452 33 283 3.2 4.8 0.00 0.00 0.00 51 1044.3
20260905183951 33 304 3.2 3.2 0.00 0.00 0.00 52 1044.2
20260905183445 33 288 3.2 3.2 0.00 0.00 0.00 51 1044.2
20260905182940 33 192 4.8 4.8 0.00 0.00 0.00 53 1044.6
20260905182440 33 291 1.6 1.6 0.00 0.00 0.00 54 1044.4
20260905181935 33 297 0.0 0.0 0.00 0.00 0.00 53 1044.4
20260905181435 33 283 1.6 1.6 0.00 0.00 0.00 52 1044.6
20260905180934 33 275 0.0 0.0 0.00 0.00 0.00 55 1044.6
20260905180429 33 285 1.6 1.6 0.00 0.00 0.00 55 1044.6
20260905175924 33 293 1.6 1.6 0.00 0.00 0.00 52 1044.5
20260905175424 32 256 3.2 3.2 0.00 0.00 0.00 54 1044.6
20260905174919 32 279 0.0 0.0 0.00 0.00 0.00 55 1045.0
20260905174415 32 296 3.2 3.2 0.00 0.00 0.00 56 1044.9
20260905173910 32 278 3.2 4.8 0.00 0.00 0.00 54 1044.9
20260905173407 32 307 0.0 1.6 0.00 0.00 0.00 56 1044.7
20260905172907 32 275 3.2 4.8 0.00 0.00 0.00 55 1044.9
20260905172404 32 252 1.6 3.2 0.00 0.00 0.00 58 1045.1
20260905171900 31 277 0.0 1.6 0.00 0.00 0.00 60 1045.0
20260905171357 31 224 1.6 1.6 0.00 0.00 0.00 58 1045.0
20260905170853 31 261 1.6 3.2 0.00 0.00 0.00 57 1045.3
20260905170349 31 240 4.8 6.4 0.00 0.00 0.00 56 1045.4
20260905165848 30 271 0.0 0.0 0.00 0.00 0.00 61 1045.3
20260905165343 30 164 3.2 3.2 0.00 0.00 0.00 58 1045.4
20260905164838 30 276 1.6 1.6 0.00 0.00 0.00 62 1045.4
20260905164333 30 237 3.2 4.8 0.00 0.00 0.00 60 1045.9
20260905163828 29 267 3.2 4.8 0.00 0.00 0.00 64 1045.7
20260905163325 28 258 1.6 1.6 0.00 0.00 0.00 70 1045.6
20260905162821 27 276 1.6 1.6 0.00 0.00 0.00 71 1045.7
20260905162321 26 256 0.0 1.6 0.00 0.00 0.00 73 1045.8
20260905161821 26 263 0.0 1.6 0.00 0.00 0.00 74 1045.9
20260905161320 26 264 0.0 0.0 0.00 0.00 0.00 76 1046.0
20260905160819 26 287 0.0 0.0 0.00 0.00 0.00 74 1046.2
20260905160313 27 296 0.0 0.0 0.00 0.00 0.00 72 1046.3
20260905155808 28 295 0.0 0.0 0.00 0.00 0.00 68 1046.3
20260905155307 28 272 1.6 1.6 0.00 0.00 0.00 61 1046.0
20260905154801 30 180 1.6 3.2 0.00 0.00 0.00 58 1045.9
20260905154257 30 287 0.0 0.0 0.00 0.00 0.00 61 1046.0
20260905153752 29 293 0.0 1.6 0.00 0.00 0.00 62 1046.0
20260905153248 28 218 1.6 3.2 0.00 0.00 0.00 61 1045.8
20260905152743 28 268 1.6 1.6 0.00 0.00 0.00 63 1045.9
20260905152243 28 245 1.6 1.6 0.00 0.00 0.00 63 1045.8
20260905151742 28 233 4.8 6.4 0.00 0.00 0.00 60 1045.8
20260905151238 28 226 3.2 4.8 0.00 0.00 0.00 63 1045.8
20260905150738 27 103 4.8 6.4 0.00 0.00 0.00 63 1045.7
20260905150237 28 133 8.0 9.7 0.00 0.00 0.00 62 1045.9
20260905145735 27 185 3.2 3.2 0.00 0.00 0.00 64 1045.9
20260905145230 27 127 6.4 11.3 0.00 0.00 0.00 64 1045.6
20260905144729 27 200 0.0 1.6 0.00 0.00 0.00 67 1045.7
20260905144224 27 233 3.2 3.2 0.00 0.00 0.00 66 1045.8
20260905143723 27 137 4.8 4.8 0.00 0.00 0.00 67 1045.9
20260905143223 27 283 1.6 1.6 0.00 0.00 0.00 68 1046.0
20260905142721 26 234 1.6 1.6 0.00 0.00 0.00 70 1046.0
20260905142216 26 180 8.0 11.3 0.00 0.00 0.00 69 1045.8
20260905141712 26 90 3.2 4.8 0.00 0.00 0.00 68 1046.0
20260905141208 25 306 0.0 0.0 0.00 0.00 0.00 70 1045.9
20260905140702 25 174 6.4 14.5 0.00 0.00 0.00 70 1046.3
20260905140157 26 326 3.2 6.4 0.00 0.00 0.00 69 1046.1
20260905135652 25 271 3.2 4.8 0.00 0.00 0.00 70 1046.2
20260905135148 26 134 3.2 6.4 0.00 0.00 0.00 69 1046.1
20260905134647 25 126 4.8 6.4 0.00 0.00 0.00 71 1046.1
20260905134146 25 125 4.8 6.4 0.00 0.00 0.00 72 1046.1
20260905133642 24 152 6.4 9.7 0.00 0.00 0.00 73 1046.3
20260905133141 24 51 4.8 6.4 0.00 0.00 0.00 73 1046.3
20260905132641 24 177 3.2 4.8 0.00 0.00 0.00 74 1046.4
20260905132136 23 123 3.2 3.2 0.00 0.00 0.00 75 1046.3
20260905131631 23 137 4.8 4.8 0.00 0.00 0.00 75 1046.4
20260905131127 23 121 9.7 14.5 0.00 0.00 0.00 75 1046.6
20260905130627 23 56 6.4 9.7 0.00 0.00 0.00 76 1046.5
20260905130127 23 177 3.2 3.2 0.00 0.00 0.00 76 1046.3
20260905125626 23 138 6.4 9.7 0.00 0.00 0.00 77 1046.1
20260905125122 23 343 4.8 6.4 0.00 0.00 0.00 78 1046.0
20260905124619 22 156 4.8 6.4 0.00 0.00 0.00 79 1046.1
20260905124115 22 122 6.4 9.7 0.00 0.00 0.00 79 1045.9
20260905123610 22 117 6.4 9.7 0.00 0.00 0.00 80 1045.9
20260905123107 22 247 3.2 3.2 0.00 0.00 0.00 80 1045.7
20260905122607 22 294 1.6 1.6 0.00 0.00 0.00 80 1045.9
20260905122107 22 193 3.2 4.8 0.00 0.00 0.00 80 1045.9
20260905121601 22 79 6.4 9.7 0.00 0.00 0.00 80 1046.0
20260905121057 22 128 8.0 9.7 0.00 0.00 0.00 81 1046.0
20260905120556 22 138 9.7 11.3 0.00 0.00 0.00 81 1045.7
20260905120051 22 165 3.2 4.8 0.00 0.00 0.00 82 1045.7
20260905115550 22 154 4.8 9.7 0.00 0.00 0.00 81 1045.8
20260905115045 21 125 4.8 6.4 0.00 0.00 0.00 82 1045.9
20260905114544 21 111 4.8 4.8 0.00 0.00 0.00 82 1046.2
20260905114043 21 180 1.6 4.8 0.00 0.00 0.00 82 1046.0
20260905113538 21 8 1.6 1.6 0.00 0.00 0.00 83 1046.0
20260905113033 21 249 1.6 3.2 0.00 0.00 0.00 83 1046.1
20260905112529 21 283 0.0 0.0 0.00 0.00 0.00 83 1046.0
20260905112025 21 317 1.6 3.2 0.00 0.00 0.00 83 1045.8
20260905111525 22 283 1.6 1.6 0.00 0.00 0.00 83 1045.9
20260905111024 22 258 8.0 11.3 0.00 0.00 0.00 83 1045.7
20260905110523 22 334 3.2 3.2 0.00 0.00 0.00 82 1045.7
20260905110019 22 139 6.4 6.4 0.00 0.00 0.00 82 1046.0
20260905105513 22 329 1.6 1.6 0.00 0.00 0.00 82 1046.1
20260905105012 22 168 8.0 11.3 0.00 0.00 0.00 82 1045.8
20260905104509 22 153 3.2 4.8 0.00 0.00 0.00 81 1045.8
20260905104008 22 33 1.6 3.2 0.00 0.00 0.00 81 1046.0
20260905103503 22 146 6.4 9.7 0.00 0.00 0.00 80 1045.8
20260905102959 22 114 14.5 17.7 0.00 0.00 0.00 80 1046.1
20260905102455 23 123 8.0 9.7 0.00 0.00 0.00 80 1046.3
20260905101950 23 65 3.2 6.4 0.00 0.00 0.00 82 1046.0
20260905101449 23 48 6.4 14.5 0.00 0.00 0.00 82 1045.7
20260905100948 23 50 6.4 9.7 0.00 0.00 0.00 89 1045.4
20260905100444 23 328 3.2 4.8 0.00 0.00 0.00 95 1045.2
20260905095943 23 248 0.0 0.0 0.00 0.00 0.00 97 1044.9
20260905095444 23 248 0.0 0.0 0.00 0.00 0.00 96 1044.6
20260905094939 23 248 0.0 0.0 0.00 0.00 0.00 96 1044.8
20260905094435 23 248 0.0 0.0 0.00 0.00 0.00 96 1044.7
20260905093933 23 248 0.0 0.0 0.00 0.00 0.00 96 1044.4
20260905093429 23 248 0.0 0.0 0.00 0.00 0.00 96 1044.7
20260905092924 23 248 0.0 0.0 0.00 0.00 0.00 96 1044.6
20260905092419 23 248 0.0 0.0 0.00 0.00 0.00 96 1044.9
20260905091915 23 248 0.0 0.0 0.00 0.00 0.00 96 1044.7
20260905091415 23 248 0.0 0.0 0.00 0.00 0.00 96 1044.6
20260905090914 23 248 0.0 0.0 0.00 0.00 0.00 96 1044.5
20260905090409 23 248 0.0 0.0 0.00 0.00 0.00 96 1044.7
20260905085909 22 248 0.0 0.0 0.00 0.00 0.00 96 1044.4
20260905085408 22 248 0.0 0.0 0.00 0.00 0.00 96 1044.5
20260905084905 22 248 0.0 0.0 0.00 0.00 0.00 95 1044.4
20260905084403 23 248 0.0 0.0 0.00 0.00 0.00 95 1044.5
20260905083858 23 245 0.0 0.0 0.00 0.00 0.00 95 1044.6
20260905083354 23 245 0.0 0.0 0.00 0.00 0.00 95 1044.3
20260905082849 23 244 0.0 0.0 0.00 0.00 0.00 95 1044.5
20260905082345 23 244 0.0 0.0 0.00 0.00 0.00 94 1044.4
20260905081841 23 244 0.0 0.0 0.00 0.00 0.00 94 1044.4
20260905081335 23 244 0.0 0.0 0.00 0.00 0.00 94 1044.4
20260905080835 23 244 0.0 0.0 0.00 0.00 0.00 93 1044.3
20260905080335 23 244 0.0 0.0 0.00 0.00 0.00 93 1044.4
20260905075833 23 244 0.0 0.0 0.00 0.00 0.00 93 1044.2
20260905075328 23 244 0.0 0.0 0.00 0.00 0.00 92 1044.2
20260905074827 23 244 0.0 0.0 0.00 0.00 0.00 92 1044.3
20260905074323 23 244 0.0 0.0 0.00 0.00 0.00 91 1044.3
20260905073818 24 244 0.0 0.0 0.00 0.00 0.00 91 1044.1
20260905073314 24 244 0.0 0.0 0.00 0.00 0.00 91 1043.8
20260905072814 24 244 0.0 0.0 0.00 0.00 0.00 90 1043.7
20260905072309 24 244 0.0 0.0 0.00 0.00 0.00 90 1043.5
20260905071806 24 244 0.0 0.0 0.00 0.00 0.00 90 1043.6
20260905071301 24 247 0.0 0.0 0.00 0.00 0.00 90 1043.6
20260905070756 24 249 0.0 0.0 0.00 0.00 0.00 89 1043.8
20260905070253 24 249 1.6 1.6 0.00 0.00 0.00 89 1043.6
20260905065751 24 248 0.0 0.0 0.00 0.00 0.00 89 1043.7
20260905065250 24 248 0.0 0.0 0.00 0.00 0.00 89 1043.9
20260905064746 24 250 0.0 0.0 0.00 0.00 0.00 89 1043.8
20260905064241 24 250 0.0 0.0 0.00 0.00 0.00 88 1044.0
20260905063739 24 250 0.0 0.0 0.00 0.00 0.00 88 1044.0
20260905063236 24 251 0.0 0.0 0.00 0.00 0.00 88 1044.2
20260905062732 24 252 1.6 1.6 0.00 0.00 0.00 88 1044.4
20260905062231 24 252 0.0 0.0 0.00 0.00 0.00 87 1044.3
20260905061726 24 247 0.0 0.0 0.00 0.00 0.00 87 1044.4
20260905061221 25 247 0.0 0.0 0.00 0.00 0.00 87 1044.6
20260905060720 25 247 1.6 1.6 0.00 0.00 0.00 87 1044.7
20260905060218 25 247 0.0 0.0 0.00 0.00 0.00 87 1044.7
20260905055715 25 247 0.0 0.0 0.00 0.00 0.00 86 1044.7
20260905055211 25 247 0.0 0.0 0.00 0.00 0.00 86 1044.6
20260905054706 25 247 1.6 1.6 0.00 0.00 0.00 86 1044.6
20260905054203 25 250 0.0 0.0 0.00 0.00 0.00 86 1044.7
20260905053702 25 256 0.0 0.0 0.00 0.00 0.00 86 1044.8
20260905053157 25 256 0.0 0.0 0.00 0.00 0.00 86 1044.8
20260905052656 25 256 0.0 0.0 0.00 0.00 0.00 86 1044.9